カタログに戻る

STARLINK-5806

運用中通信VLEO
NORAD 56007·PAYLOAD·🇺🇸 United States

打ち上げ Mar 24, 2023 から Cape Canaveral Space Force Station

Loading…

次のパス (今後24時間)

TLE

最新Source: CelesTrak SupGP

元期: Sep 14, 2026, 21:06 UTC

1 56007C 23042X   26257.87965278  .00040787  00000+0  14772-2 0  2578
2 56007  43.0037  71.1477 0002159 273.0012  89.6602 15.27558605    12

AllMySatでSTARLINK-5806をリアルタイム追跡

Download on the App Store